�N����,����,�~����,�C��,���x,�C��,����,���ϕ���,�ő�u�ԕ���,�ő厞����,���˗�,�I�_���x,�n�����x,�ő啗���N��,DTYPE
"19/09/14","00:10",0.0,23.4,75.3,1008.1,52.7,0.8,2.2,109.1,0.00,18.8,23.8,"00:09:32",1
"19/09/14","00:20",0.0,23.4,75.0,1007.8,43.9,0.8,1.7,334.1,0.00,18.8,23.7,"00:11:44",1
"19/09/14","00:30",0.0,23.2,75.4,1007.8,336.9,0.6,1.6,319.0,0.00,18.6,23.7,"00:27:44",1
"19/09/14","00:40",0.0,23.1,75.8,1007.6,17.5,0.8,2.1,85.9,0.00,18.6,24.0,"00:30:16",1
"19/09/14","00:50",0.0,22.9,76.0,1007.1,345.3,0.7,1.4,98.5,0.00,18.5,23.8,"00:44:08",1
"19/09/14","01:00",0.0,22.7,76.7,1007.6,313.0,0.8,1.6,326.2,0.00,18.4,23.7,"00:58:00",1
"19/09/14","01:10",0.0,22.5,77.8,1007.4,318.2,0.8,1.7,286.1,0.00,18.5,23.7,"01:00:32",1
"19/09/14","01:20",0.0,22.6,77.9,1007.1,331.8,0.6,1.7,334.0,0.00,18.6,23.7,"01:19:44",1
"19/09/14","01:30",0.0,22.4,78.3,1007.4,330.6,1.1,2.0,333.3,0.00,18.5,23.8,"01:29:28",1
"19/09/14","01:40",0.0,22.5,78.2,1007.4,331.0,1.2,2.1,333.1,0.00,18.6,23.6,"01:33:44",1
"19/09/14","01:50",0.0,22.5,78.4,1007.6,347.0,1.1,1.8,327.1,0.00,18.6,23.6,"01:42:08",1
"19/09/14","02:00",0.0,22.7,78.0,1007.6,330.7,0.7,1.9,330.8,0.00,18.7,23.7,"01:50:32",1
"19/09/14","02:10",0.0,22.8,77.5,1007.4,4.5,0.6,1.7,121.7,0.00,18.7,23.7,"02:07:36",1
"19/09/14","02:20",0.0,23.2,76.2,1007.6,67.4,1.0,2.7,112.1,0.00,18.8,23.6,"02:18:16",1
"19/09/14","02:30",0.0,23.3,75.0,1007.6,83.6,0.8,2.6,26.4,0.00,18.7,23.7,"02:24:32",1
"19/09/14","02:40",0.0,23.3,74.2,1007.8,36.0,0.7,2.0,12.4,0.00,18.5,23.5,"02:32:16",1
"19/09/14","02:50",0.0,23.2,74.4,1007.4,83.4,0.7,1.4,116.0,0.00,18.4,23.6,"02:45:36",1
"19/09/14","03:00",0.0,23.2,73.9,1007.6,42.9,0.7,2.0,66.9,0.00,18.3,23.4,"02:53:20",1
"19/09/14","03:10",0.0,23.2,73.4,1007.6,40.5,0.7,1.7,29.9,0.00,18.2,23.5,"03:02:08",1
"19/09/14","03:20",0.0,23.2,73.5,1007.4,30.0,0.6,1.2,6.1,0.00,18.2,23.7,"03:14:48",1
"19/09/14","03:30",0.0,23.1,73.6,1007.4,351.1,0.7,1.6,9.5,0.00,18.2,23.5,"03:25:44",1
"19/09/14","03:40",0.0,23.0,73.6,1007.4,3.0,0.7,1.4,96.1,0.00,18.1,23.5,"03:33:20",1
"19/09/14","03:50",0.0,22.8,73.7,1007.1,355.8,0.6,1.3,38.0,0.00,17.9,23.6,"03:45:20",1
"19/09/14","04:00",0.0,22.5,74.6,1006.9,325.2,0.6,1.1,312.2,0.00,17.8,23.4,"03:53:12",1
"19/09/14","04:10",0.0,21.9,77.0,1007.1,316.7,1.1,1.6,323.7,0.00,17.7,23.6,"04:07:44",1
"19/09/14","04:20",0.0,21.6,78.7,1007.4,333.8,0.8,1.4,336.0,0.00,17.8,23.4,"04:10:08",1
"19/09/14","04:30",0.0,21.8,77.5,1007.6,354.2,0.6,1.3,342.4,0.00,17.7,23.2,"04:23:04",1
"19/09/14","04:40",0.0,21.9,76.4,1007.6,357.9,0.6,1.4,328.6,0.00,17.6,23.3,"04:31:44",1
"19/09/14","04:50",0.0,22.1,74.9,1007.6,344.1,1.0,1.7,343.1,0.00,17.5,23.4,"04:40:08",1
"19/09/14","05:00",0.0,21.9,75.5,1007.6,338.6,1.2,2.4,329.7,0.00,17.4,23.2,"04:52:08",1
"19/09/14","05:10",0.0,21.9,74.6,1007.6,358.0,0.6,1.6,338.5,0.00,17.2,23.3,"05:08:56",1
"19/09/14","05:20",0.0,21.9,73.8,1007.4,334.3,0.7,1.9,334.2,0.00,17.1,23.4,"05:18:32",1
"19/09/14","05:30",0.0,21.7,74.5,1007.6,331.1,0.8,1.8,337.0,0.00,17.0,23.2,"05:24:32",1
"19/09/14","05:40",0.0,21.4,75.6,1007.8,333.4,0.6,1.7,325.6,0.00,17.0,23.2,"05:35:52",1
"19/09/14","05:50",0.0,20.9,77.9,1008.1,324.4,1.2,2.0,331.3,0.00,16.9,23.1,"05:43:04",1
"19/09/14","06:00",0.0,20.4,80.1,1007.8,291.1,0.8,1.8,339.1,0.00,16.9,23.1,"05:54:24",1
"19/09/14","06:10",0.0,19.9,81.4,1008.1,305.2,0.8,1.1,310.7,0.00,16.7,23.1,"06:02:24",1
"19/09/14","06:20",0.0,19.7,83.6,1008.1,307.5,1.1,1.7,328.7,0.00,16.9,22.9,"06:18:32",1
"19/09/14","06:30",0.0,19.7,84.4,1008.3,314.0,1.0,1.6,320.5,0.00,17.0,23.1,"06:20:32",1
"19/09/14","06:40",0.0,19.9,85.7,1008.3,305.8,0.7,1.6,323.2,0.00,17.5,23.0,"06:38:08",1
"19/09/14","06:50",0.0,20.3,85.8,1008.3,308.8,0.7,1.6,321.7,0.00,17.9,23.0,"06:45:52",1
"19/09/14","07:00",0.0,20.8,85.8,1008.1,288.8,0.6,1.0,318.1,0.01,18.4,22.9,"06:57:52",1
"19/09/14","07:10",0.0,21.6,84.8,1008.6,307.2,0.6,1.2,319.5,0.02,19.0,22.9,"07:08:24",1
"19/09/14","07:20",0.0,22.4,80.9,1008.1,328.6,0.3,1.1,333.6,0.03,19.0,23.2,"07:17:12",1
"19/09/14","07:30",0.0,22.6,78.8,1007.8,315.8,0.7,1.3,329.6,0.05,18.8,22.9,"07:22:48",1
"19/09/14","07:40",0.0,23.3,76.7,1007.8,304.5,0.2,1.0,338.3,0.06,19.0,22.9,"07:30:40",1
"19/09/14","07:50",0.0,24.4,72.8,1007.6,266.9,0.1,0.4,273.4,0.09,19.2,23.1,"07:40:24",1
"19/09/14","08:00",0.0,24.7,70.7,1007.8,7.4,0.5,1.6,349.2,0.11,19.1,23.4,"07:59:12",1
"19/09/14","08:10",0.0,24.3,71.9,1007.8,3.9,0.8,1.8,357.8,0.13,18.9,23.5,"08:07:52",1
"19/09/14","08:20",0.0,25.2,68.4,1007.6,351.9,0.6,1.2,339.1,0.16,19.0,23.6,"08:10:40",1
"19/09/14","08:30",0.0,25.7,63.2,1007.1,88.9,0.8,2.4,102.3,0.19,18.2,23.8,"08:26:40",1
"19/09/14","08:40",0.0,26.0,62.5,1006.9,65.5,1.0,2.6,28.8,0.22,18.3,23.9,"08:34:24",1
"19/09/14","08:50",0.0,26.2,61.8,1007.1,123.5,1.3,2.5,122.9,0.25,18.3,24.1,"08:46:40",1
"19/09/14","09:00",0.0,26.2,58.9,1006.7,93.4,1.3,3.4,111.2,0.27,17.6,24.3,"08:55:20",1
"19/09/14","09:10",0.0,26.6,58.9,1006.4,91.1,1.3,2.9,116.5,0.29,17.9,24.2,"09:04:40",1
"19/09/14","09:20",0.0,26.5,58.8,1006.0,78.6,1.5,3.4,108.4,0.31,17.8,24.6,"09:13:28",1
"19/09/14","09:30",0.0,26.9,58.2,1006.4,82.1,1.1,2.6,38.0,0.33,18.0,24.8,"09:20:16",1
"19/09/14","09:40",0.0,26.9,60.4,1006.4,111.4,1.5,2.8,105.3,0.36,18.6,24.8,"09:32:56",1
"19/09/14","09:50",0.0,27.2,59.5,1006.4,83.1,1.3,3.2,59.8,0.38,18.7,25.1,"09:44:00",1
"19/09/14","10:00",0.0,27.3,60.6,1006.9,117.8,1.5,3.4,36.6,0.40,19.1,25.4,"09:51:44",1
"19/09/14","10:10",0.2,27.2,60.1,1006.4,109.5,1.8,3.9,116.5,0.42,18.8,25.3,"10:05:12",1
"19/09/14","10:20",0.0,27.5,59.9,1006.4,123.5,1.5,4.1,102.3,0.43,19.1,25.9,"10:14:08",1
"19/09/14","10:30",0.0,27.8,59.3,1006.7,102.0,1.7,3.7,93.8,0.45,19.2,25.9,"10:22:40",1
"19/09/14","10:40",0.0,27.7,58.1,1006.9,98.7,1.7,4.8,102.6,0.46,18.8,26.2,"10:35:28",1
"19/09/14","10:50",0.0,27.7,59.2,1006.7,135.0,1.7,4.0,104.1,0.47,19.1,26.2,"10:40:56",1
"19/09/14","11:00",0.0,28.5,58.5,1006.7,119.8,1.1,2.7,116.5,0.49,19.6,26.6,"10:52:00",1
"19/09/14","11:10",0.0,28.2,56.7,1006.9,95.7,1.7,4.0,58.2,0.50,18.8,26.7,"11:02:24",1
"19/09/14","11:20",0.0,28.6,58.3,1006.9,126.8,1.2,2.9,116.5,0.51,19.7,27.2,"11:12:24",1
"19/09/14","11:30",0.0,28.9,55.7,1006.7,66.8,1.5,3.6,115.5,0.51,19.2,27.3,"11:22:00",1
"19/09/14","11:40",0.0,29.3,57.4,1006.0,108.9,1.7,4.2,113.1,0.52,20.1,27.6,"11:32:40",1
"19/09/14","11:50",0.0,29.1,56.0,1006.4,99.8,1.7,4.5,117.0,0.53,19.5,27.6,"11:49:44",1
"19/09/14","12:00",0.0,29.1,56.6,1006.4,130.0,1.7,4.3,114.7,0.54,19.6,27.8,"11:58:08",1
"19/09/14","12:10",0.0,29.5,55.1,1006.4,105.6,1.5,2.9,115.9,0.54,19.6,28.1,"12:09:12",1
"19/09/14","12:20",0.0,29.8,53.7,1006.2,67.5,1.6,3.9,63.6,0.45,19.4,28.2,"12:12:56",1
"19/09/14","12:30",0.0,29.8,55.6,1006.4,132.2,1.7,3.4,141.7,0.56,20.0,28.5,"12:22:56",1
"19/09/14","12:40",0.0,29.7,56.2,1006.2,118.0,1.7,4.0,102.2,0.55,20.1,28.5,"12:35:36",1
"19/09/14","12:50",0.0,29.8,53.7,1006.2,100.3,2.1,4.8,120.9,0.56,19.4,28.6,"12:43:36",1
"19/09/14","13:00",0.0,30.4,52.9,1005.7,83.0,1.8,7.0,41.1,0.54,19.8,28.8,"12:51:20",1
"19/09/14","13:10",0.0,29.9,54.5,1005.5,63.7,1.5,3.5,93.0,0.33,19.8,28.8,"13:01:36",1
"19/09/14","13:20",0.0,30.1,54.2,1005.2,111.5,1.6,3.6,107.9,0.43,19.9,28.9,"13:13:12",1
"19/09/14","13:30",0.0,29.6,55.9,1005.0,135.3,2.1,3.9,187.4,0.44,19.9,28.9,"13:26:32",1
"19/09/14","13:40",0.0,30.6,53.7,1005.0,117.1,1.8,5.5,106.7,0.53,20.2,29.1,"13:36:40",1
"19/09/14","13:50",0.0,29.9,54.0,1005.2,97.3,1.5,4.8,113.5,0.30,19.6,29.0,"13:42:24",1
"19/09/14","14:00",0.0,30.7,50.9,1005.0,72.9,1.6,3.2,62.2,0.53,19.4,29.2,"13:52:56",1
"19/09/14","14:10",0.0,30.3,52.7,1005.0,85.8,1.5,5.2,43.0,0.32,19.6,29.2,"14:04:48",1
"19/09/14","14:20",0.0,31.0,52.4,1005.0,94.3,1.5,4.4,119.4,0.49,20.2,29.2,"14:16:32",1
"19/09/14","14:30",0.0,29.7,55.4,1005.0,104.3,1.6,4.4,109.3,0.27,19.9,29.2,"14:20:24",1
"19/09/14","14:40",0.0,30.6,51.5,1004.8,97.9,1.5,4.3,111.2,0.46,19.5,29.3,"14:36:24",1
"19/09/14","14:50",0.0,30.4,52.5,1004.8,66.7,1.7,3.9,50.0,0.38,19.6,29.3,"14:44:24",1
"19/09/14","15:00",0.0,29.9,53.6,1004.1,102.7,1.8,4.8,43.4,0.19,19.5,29.3,"14:55:28",1
"19/09/14","15:10",0.0,30.7,52.5,1004.1,93.4,1.7,3.6,111.4,0.43,19.9,29.6,"15:08:40",1
"19/09/14","15:20",0.0,29.7,54.7,1004.3,98.4,1.5,3.1,110.6,0.13,19.7,29.1,"15:16:08",1
"19/09/14","15:30",0.0,29.5,56.0,1004.1,88.3,1.5,4.4,112.0,0.10,19.8,29.1,"15:25:36",1
"19/09/14","15:40",0.0,30.1,55.8,1003.1,95.0,1.3,3.2,103.3,0.14,20.3,29.1,"15:33:12",1
"19/09/14","15:50",0.0,30.2,54.1,1003.6,98.0,1.3,2.5,77.0,0.19,19.9,29.1,"15:42:24",1
"19/09/14","16:00",0.0,30.1,55.1,1003.4,89.5,1.2,3.1,109.0,0.17,20.1,28.8,"15:54:08",1
"19/09/14","16:10",0.0,29.9,55.1,1003.1,94.4,1.6,3.5,122.5,0.12,20.0,28.9,"16:02:48",1
"19/09/14","16:20",0.0,29.9,55.0,1003.4,41.7,1.0,2.4,31.6,0.10,19.9,28.4,"16:18:08",1
"19/09/14","16:30",0.0,29.8,56.0,1003.1,59.2,1.0,2.1,19.7,0.09,20.1,28.7,"16:20:08",1
"19/09/14","16:40",0.0,29.5,56.5,1003.1,50.2,1.0,2.8,47.9,0.07,20.0,28.6,"16:30:02",1
"19/09/14","16:50",0.0,29.2,56.3,1002.9,54.4,1.2,3.2,88.4,0.05,19.7,28.4,"16:43:36",1
"19/09/14","17:00",0.0,29.1,58.0,1003.1,50.7,0.8,2.0,4.0,0.04,20.0,28.4,"16:53:20",1
"19/09/14","17:10",0.0,29.0,58.9,1002.9,26.2,0.7,2.0,53.4,0.03,20.2,28.2,"17:06:56",1
"19/09/14","17:20",0.0,28.9,58.7,1002.4,51.1,0.8,2.1,46.9,0.03,20.0,28.2,"17:14:40",1
"19/09/14","17:30",0.0,28.9,58.2,1002.9,46.2,1.0,2.8,107.7,0.04,19.9,28.1,"17:29:04",1
"19/09/14","17:40",0.0,29.0,57.7,1002.6,61.4,1.3,4.1,56.6,0.05,19.9,27.9,"17:30:32",1
"19/09/14","17:50",0.0,29.0,57.5,1002.6,67.5,1.1,3.6,115.3,0.04,19.8,27.8,"17:41:12",1
"19/09/14","18:00",0.0,28.9,58.4,1002.4,55.2,0.8,3.4,355.4,0.02,20.0,27.9,"17:55:28",1
"19/09/14","18:10",0.0,28.6,58.9,1002.6,47.7,1.0,2.7,73.0,0.01,19.8,27.6,"18:01:36",1
"19/09/14","18:20",0.0,28.3,59.9,1002.9,26.3,0.8,2.1,15.1,0.00,19.8,27.7,"18:11:36",1
"19/09/14","18:30",0.0,28.0,61.3,1003.6,92.3,0.8,2.6,103.3,0.00,19.9,27.6,"18:27:44",1
"19/09/14","18:40",0.0,27.6,60.7,1003.6,95.1,1.3,3.2,107.2,0.00,19.4,27.5,"18:39:28",1
"19/09/14","18:50",0.0,27.4,61.1,1003.8,106.5,1.5,3.5,107.3,0.00,19.3,27.3,"18:44:56",1
"19/09/14","19:00",0.0,27.3,61.2,1003.8,107.6,1.6,4.4,101.1,0.00,19.2,27.2,"18:50:32",1
"19/09/14","19:10",0.0,27.2,61.4,1004.1,90.0,1.5,3.6,103.5,0.00,19.2,26.9,"19:03:20",1
"19/09/14","19:20",0.0,26.8,62.7,1004.1,108.5,0.8,2.2,104.9,0.00,19.1,27.0,"19:16:16",1
"19/09/14","19:30",0.0,26.6,62.6,1004.8,103.4,0.8,2.1,93.0,0.00,18.9,26.8,"19:23:44",1
"19/09/14","19:40",0.0,26.7,62.8,1004.5,64.0,1.1,2.6,83.8,0.00,19.1,26.7,"19:35:44",1
"19/09/14","19:50",0.0,26.6,62.9,1004.8,89.2,1.0,2.2,81.9,0.00,19.0,26.5,"19:43:04",1
"19/09/14","20:00",0.0,26.3,63.8,1005.0,19.5,1.0,2.4,115.9,0.00,18.9,26.3,"19:54:00",1
"19/09/14","20:10",0.0,25.8,66.6,1005.0,353.5,0.7,1.7,347.6,0.00,19.2,26.3,"20:00:24",1
"19/09/14","20:20",0.0,25.3,68.1,1005.0,345.9,0.8,1.9,344.3,0.00,19.0,26.1,"20:11:04",1
"19/09/14","20:30",0.0,25.0,70.4,1005.5,350.9,0.6,1.6,330.6,0.00,19.3,26.3,"20:25:44",1
"19/09/14","20:40",0.0,25.1,71.0,1005.2,0.1,0.7,1.6,24.4,0.00,19.5,26.2,"20:37:20",1
"19/09/14","20:50",0.0,25.0,71.5,1005.2,2.7,0.7,2.5,22.5,0.00,19.5,26.0,"20:49:12",1
"19/09/14","21:00",0.0,25.1,71.5,1005.5,5.4,0.7,2.2,46.4,0.00,19.6,25.9,"20:54:00",1
"19/09/14","21:10",0.0,25.0,72.2,1005.7,3.7,0.7,1.7,47.9,0.00,19.7,26.0,"21:02:48",1
"19/09/14","21:20",0.0,24.9,72.9,1005.7,357.5,0.7,1.7,359.0,0.00,19.7,25.8,"21:11:44",1
"19/09/14","21:30",0.0,24.6,73.7,1005.5,346.3,0.6,1.3,66.5,0.00,19.6,25.6,"21:20:08",1
"19/09/14","21:40",0.0,24.5,74.8,1005.7,343.2,0.8,1.7,358.7,0.00,19.8,25.7,"21:34:24",1
"19/09/14","21:50",0.0,24.4,75.4,1005.7,349.0,0.7,1.6,344.7,0.00,19.8,25.6,"21:42:32",1
"19/09/14","22:00",0.0,24.3,75.5,1005.7,341.1,0.7,1.4,329.7,0.00,19.7,25.5,"21:58:48",1
"19/09/14","22:10",0.0,24.0,77.0,1005.5,326.9,0.8,1.4,315.3,0.00,19.8,25.5,"22:08:24",1
"19/09/14","22:20",0.0,23.5,78.0,1005.7,323.0,1.2,1.8,331.6,0.00,19.5,25.6,"22:11:52",1
"19/09/14","22:30",0.0,23.1,79.5,1005.7,323.5,1.1,1.7,326.5,0.00,19.4,25.4,"22:23:12",1
"19/09/14","22:40",0.0,22.7,81.7,1005.7,313.4,0.8,1.2,330.8,0.00,19.5,25.4,"22:30:02",1
"19/09/14","22:50",0.0,22.4,83.2,1005.2,289.0,0.7,1.1,326.7,0.00,19.5,25.4,"22:40:16",1
"19/09/14","23:00",0.0,22.1,84.1,1006.0,308.9,1.1,1.4,324.5,0.00,19.3,25.1,"22:59:12",1
"19/09/14","23:10",0.0,22.0,84.9,1005.5,288.0,0.8,1.1,306.0,0.00,19.4,25.0,"23:00:48",1
"19/09/14","23:20",0.0,21.9,85.4,1005.5,303.7,0.8,1.4,321.9,0.00,19.4,25.0,"23:12:24",1
"19/09/14","23:30",0.0,21.8,86.1,1005.7,290.7,1.1,1.6,295.1,0.00,19.4,24.9,"23:25:28",1
"19/09/14","23:40",0.0,21.9,85.9,1005.5,287.6,1.0,1.6,300.1,0.00,19.5,25.0,"23:39:44",1
"19/09/14","23:50",0.0,21.9,85.8,1005.5,314.4,1.3,1.8,324.1,0.00,19.5,24.8,"23:47:28",1
"19/09/14","24:00",0.0,21.8,86.6,1005.5,322.7,1.1,1.9,321.4,0.00,19.5,24.9,"23:54:40",1
